Location: Unspecified
(0.0000°N, 0.0000°E)
Time: 04:47:29
(UTC+00:00)

COMPASS 1 - Visible Passes

Search period start: 20 March 2019 00:00
Search period end: 30 March 2019 00:00
Orbit: 578 x 597 km, 97.5° (Epoch: 18 March)

Date Brightness Start Highest point End Pass type
(mag) Time Alt. Az. Time Alt. Az. Time Alt. Az.
24 Mar ? 18:28:44 10° S 18:32:56 82° WSW 18:37:07 10° NNW visible
25 Mar ? 18:36:04 10° S 18:40:13 63° W 18:44:21 10° NNW visible
26 Mar ? 18:43:27 10° S 18:47:30 48° WSW 18:51:31 10° NNW visible
27 Mar ? 18:50:54 10° S 18:54:46 37° WSW 18:58:37 10° NW visible
28 Mar ? 18:58:26 10° SSW 19:02:03 29° WSW 19:05:39 10° NW visible
29 Mar ? 05:29:01 10° E 05:30:21 11° ESE 05:31:42 10° ESE visible
29 Mar ? 19:06:02 10° SSW 19:09:19 22° WSW 19:12:36 10° NW visible
